Flag for United Kingdom

Past Weather in Cleethorpes, England, United Kingdom — Yesterday and Last 2 Weeks

Now
61 °F

Overcast.


Feels Like: 61 °F
Forecast: 68 / 53 °F
Wind: 13 mph from Southeast

Location: North Somercotes

Current Time: Jul 12, 2020 at 9:24:20 pm

Latest Report: Jul 12, 2020 at 7:50 pm


Visibility: N/A

Pressure: 30.30 "Hg

Humidity: 77%

Dew Point: 54 °F

Location of CleethorpesLocation

Past Weather in Cleethorpes — Graph

°F

Cleethorpes Temperature Yesterday

Maximum temperature yesterday: 61 °F (at 2:50 pm)
Minimum temperature yesterday: 50 °F (at 2:50 am)
Average temperature yesterday: 56 °F

High & Low Weather Summary for the Past Weeks

 TemperatureHumidityPressure
High68 °F (Jul 4, 4:50 pm)100% (Jul 2, 2:50 am)30.36 "Hg (Jul 2, 2:50 am)
Low46 °F (Jul 12, 4:50 am)46% (Jul 5, 11:50 am)29.47 "Hg (Jun 27, 7:50 pm)
Average58 °F81%29.86 "Hg
* Reported Jun 27 7:50 pm — Jul 12 7:50 pm, Cleethorpes. Weather by CustomWeather, © 2020

Note: Actual official high and low records may vary slightly from our data, if they occured in-between our weather recording intervals... More about our weather records

Cleethorpes Weather History for the Previous 24 Hours

Scroll right to see more
 ConditionsComfort  
Time TempWeatherWind HumidityBarometerVisibility
7:50 pm
Sun, Jul 12
61 °FOvercast.13 mph77%30.30 "HgN/A
6:50 pm61 °FPartly sunny.16 mph77%30.30 "HgN/A
5:50 pm61 °FSunny.14 mph72%30.30 "HgN/A
4:50 pm61 °FSunny.14 mph72%30.33 "HgN/A
3:50 pm63 °FSunny.15 mph68%30.33 "HgN/A
2:50 pm64 °FSunny.13 mph68%30.36 "HgN/A
1:50 pm63 °FPassing clouds.13 mph73%30.36 "HgN/A
12:50 pm61 °FScattered clouds.10 mph72%30.36 "HgN/A
11:50 am59 °FPartly sunny.8 mph68%30.36 "HgN/A
10:50 am59 °FSunny.7 mph72%30.36 "HgN/A
9:50 am59 °FSunny.6 mph68%30.36 "HgN/A
8:50 am57 °FSunny.6 mph72%30.36 "HgN/A
7:50 am55 °FSunny.8 mph82%30.36 "HgN/A
6:50 am52 °FSunny.6 mph88%30.36 "HgN/A
5:50 am46 °FSunny.6 mph93%30.33 "HgN/A
4:50 am46 °FSunny.6 mph93%30.33 "HgN/A
3:50 am48 °FClear.6 mph87%30.33 "HgN/A
2:50 am48 °FClear.6 mph87%30.33 "HgN/A
1:50 am50 °FClear.6 mph82%30.33 "HgN/A
12:50 am52 °FClear.7 mph82%30.33 "HgN/A
11:50 pm
Sat, Jul 11
52 °FClear.6 mph82%30.33 "HgN/A
10:50 pm54 °FPassing clouds.6 mph82%30.33 "HgN/A
9:50 pm59 °FPassing clouds.5 mph68%30.33 "HgN/A
Weather by CustomWeather, © 2020

See weather overview